Weather reports worldwide

Advertisment
Wick Airport (AWS), United Kingdom (3075): temperature & dewpoint: 20.09.2018 16:00:00 - 26.09.2018 16:00:00 (BST)Wick Airport (AWS), United Kingdom (3075): temperature -20cm: 20.09.2018 16:00:00 - 26.09.2018 16:00:00 (BST)Wick Airport (AWS), United Kingdom (3075): wind speed & gusts: 20.09.2018 16:00:00 - 26.09.2018 16:00:00 (BST)Wick Airport (AWS), United Kingdom (3075): wind direction: 20.09.2018 16:00:00 - 26.09.2018 16:00:00 (BST)Wick Airport (AWS), United Kingdom (3075): reduced air pressure: 20.09.2018 16:00:00 - 26.09.2018 16:00:00 (BST)Wick Airport (AWS), United Kingdom (3075): visibility: 20.09.2018 16:00:00 - 26.09.2018 16:00:00 (BST)Wick Airport (AWS), United Kingdom (3075): precipitation: 20.09.2018 16:00:00 - 26.09.2018 16:00:00 (BST)
Date & Time tt [°C] td [°C] tt -20cm [°C] ff [km/h] ff [kn] fx [km/h] fx [kn] dd ppp [hPa] vv [km] rr [mm]
26.09.2018 16:00:00 13,1 10,6 - 28 15 - - WNW 1019,9 35 0,0
26.09.2018 15:00:00 12,7 10,6 - 28 15 - - W 1019,4 26 0,0
26.09.2018 14:00:00 11,9 10,7 - 28 15 46 25 WNW 1018,9 9 0,0
26.09.2018 13:00:00 13,4 10,5 - 24 13 - - W 1018,3 50 0,0
26.09.2018 12:00:00 13,8 10,6 - 29 16 - - W 1017,5 40 0,0
26.09.2018 11:00:00 13,2 11,5 - 18 10 - - W 1017,1 30 0,0
26.09.2018 10:00:00 12,6 11,0 10,4 16 9 - - W 1016,2 30 0,0
26.09.2018 09:00:00 12,4 11,2 - 28 15 - - W 1015,2 40 0,2
26.09.2018 08:00:00 12,9 11,4 - 24 13 - - W 1014,2 45 0,0
26.09.2018 07:00:00 13,2 11,6 - 28 15 - - W 1013,1 50 0,0
26.09.2018 06:00:00 14,0 12,1 - 31 17 - - W 1012,2 14 0,0
26.09.2018 05:00:00 14,8 12,6 - 26 14 - - WSW 1011,2 6 0,0
26.09.2018 04:00:00 15,2 12,7 - 31 17 50 27 WSW 1010,5 50 0,0
26.09.2018 03:00:00 15,3 12,8 - 41 22 52 28 WSW 1010,3 50 0,0
26.09.2018 02:00:00 13,9 12,2 - 22 12 46 25 SSW 1010,6 15 0,0
26.09.2018 01:00:00 14,1 11,9 - 37 20 54 29 SSW 1011,1 40 0,0
26.09.2018 00:00:00 13,7 11,5 - 39 21 59 32 SSW 1011,7 40 0,0
25.09.2018 23:00:00 14,0 11,2 - 37 20 50 27 SSW 1012,1 50 0,0
25.09.2018 22:00:00 13,3 10,7 - 28 15 57 31 SSW 1012,5 45 0,0
25.09.2018 21:00:00 12,5 10,3 - 39 21 65 35 SSW 1012,8 20 0,0
25.09.2018 20:00:00 12,4 9,7 - 44 24 67 36 SSW 1013,1 29 0,0
25.09.2018 19:00:00 12,3 8,9 - 44 24 63 34 SSW 1013,9 40 0,0
25.09.2018 18:00:00 12,2 8,2 - 37 20 57 31 SSW 1015,1 50 0,0
25.09.2018 17:00:00 11,9 7,8 - 41 22 61 33 SSW 1015,8 40 0,0
25.09.2018 16:00:00 11,7 7,8 - 42 23 65 35 SSW 1017,1 24 0,0
25.09.2018 15:00:00 11,7 6,6 - 41 22 70 38 S 1018,4 21 0,0
25.09.2018 14:00:00 11,8 5,1 - 42 23 55 30 S 1020,0 35 0,0
25.09.2018 13:00:00 11,2 5,9 - 31 17 48 26 S 1021,4 40 0,4
25.09.2018 12:00:00 11,7 5,2 - 39 21 55 30 S 1022,8 30 0,0
25.09.2018 11:00:00 11,5 5,3 - 41 22 63 34 S 1024,2 30 0,0
25.09.2018 10:00:00 11,6 6,8 10,0 28 15 - - S 1025,5 18 0,0
25.09.2018 09:00:00 10,5 7,0 - 29 16 - - S 1026,1 35 0,0
25.09.2018 08:00:00 10,1 7,1 - 22 12 - - S 1027,0 40 0,0
25.09.2018 07:00:00 8,8 5,0 - 11 6 - - SSW 1027,5 45 0,0
25.09.2018 06:00:00 9,3 5,3 - 15 8 - - SSW 1028,6 30 0,0
25.09.2018 05:00:00 8,5 6,0 - 11 6 - - SW 1028,8 45 0,0
25.09.2018 04:00:00 9,2 6,2 - 16 9 - - SSW 1029,2 45 0,0
25.09.2018 03:00:00 8,6 6,1 - 15 8 - - SW 1029,7 45 0,0
25.09.2018 02:00:00 9,6 7,0 - 15 8 - - SSW 1029,9 50 0,0
25.09.2018 01:00:00 9,9 7,2 - 16 9 - - SSW 1030,7 50 0,0
25.09.2018 00:00:00 9,6 7,4 - 21 11 - - WSW 1030,7 45 0,0
24.09.2018 23:00:00 9,8 7,0 - 18 10 - - SW 1031,0 50 0,0
24.09.2018 22:00:00 9,5 6,4 - 15 8 - - SSW 1031,2 50 0,0
24.09.2018 21:00:00 9,4 5,6 - 15 8 - - SW 1031,3 45 0,0
24.09.2018 20:00:00 9,2 6,4 - 15 8 - - WSW 1031,2 45 0,0
24.09.2018 19:00:00 9,7 6,6 - 9 5 - - WSW 1031,5 45 0,0
24.09.2018 18:00:00 10,4 6,7 - 13 7 - - WNW 1031,7 30 0,0
24.09.2018 17:00:00 10,8 6,1 - 16 9 - - W 1031,7 40 0,0
24.09.2018 16:00:00 11,3 5,7 - 26 14 - - W 1031,7 45 0,0
24.09.2018 15:00:00 11,2 8,1 - 24 13 - - W 1031,9 40 0,2
24.09.2018 14:00:00 9,7 6,5 - 28 15 - - W 1032,1 30 0,0
24.09.2018 13:00:00 11,3 7,2 - 22 12 - - W 1031,6 24 0,2
24.09.2018 12:00:00 10,9 7,0 - 28 15 - - W 1031,5 29 0,0
24.09.2018 11:00:00 9,1 6,9 - 18 10 - - W 1031,3 30 0,2
24.09.2018 10:00:00 8,9 6,9 10,0 29 16 - - W 1030,6 30 0,0
24.09.2018 09:00:00 7,5 6,1 - 24 13 - - W 1030,2 40 0,0
24.09.2018 08:00:00 5,7 4,4 - 21 11 - - W 1029,7 35 0,0
24.09.2018 07:00:00 4,8 3,7 - 13 7 - - W 1029,3 40 0,2
24.09.2018 06:00:00 4,8 3,8 - 15 8 - - WSW 1028,7 45 0,2
24.09.2018 05:00:00 4,4 3,4 - 9 5 - - SW 1028,8 35 0,0
24.09.2018 04:00:00 5,9 4,7 - 15 8 - - WNW 1028,7 27 0,4
24.09.2018 03:00:00 5,5 4,6 - 11 6 - - W 1028,0 40 0,0
24.09.2018 02:00:00 5,1 4,2 - 15 8 - - W 1027,4 29 0,0
24.09.2018 01:00:00 6,4 4,8 - 29 16 54 29 WNW 1026,8 40 1,8
24.09.2018 00:00:00 6,3 5,0 - 26 14 - - W 1025,8 14 0,0
23.09.2018 23:00:00 5,6 4,1 - 22 12 - - W 1025,1 30 0,2
23.09.2018 22:00:00 5,2 4,0 - 21 11 - - W 1025,0 24 0,0
23.09.2018 21:00:00 5,9 4,1 - 18 10 - - W 1024,3 26 0,0
23.09.2018 20:00:00 6,6 4,3 - 29 16 59 32 WNW 1023,6 35 0,2
23.09.2018 19:00:00 6,9 4,9 - 22 12 - - WNW 1022,9 45 0,0
23.09.2018 18:00:00 6,8 5,5 - 16 9 - - NW 1022,2 4,9 0,8
23.09.2018 17:00:00 9,1 4,9 - 18 10 - - NW 1021,5 26 0,0
23.09.2018 16:00:00 9,8 5,6 - 28 15 - - WNW 1021,0 21 0,0
23.09.2018 15:00:00 10,8 5,1 - 28 15 - - W 1020,1 45 0,0
23.09.2018 14:00:00 10,6 3,8 - 31 17 - - NW 1019,5 35 0,0
23.09.2018 13:00:00 9,9 4,7 - 13 7 - - WNW 1018,9 29 0,0
23.09.2018 12:00:00 8,9 7,1 - 22 12 - - W 1018,4 30 0,2
23.09.2018 11:00:00 7,6 5,5 - 22 12 - - W 1017,8 40 0,0
23.09.2018 10:00:00 7,5 5,5 10,5 18 10 - - WNW 1017,0 19 0,2
23.09.2018 09:00:00 6,9 5,6 - 22 12 - - WSW 1016,2 21 0,2
23.09.2018 08:00:00 5,8 5,3 - 22 12 - - W 1015,9 5 0,2
23.09.2018 07:00:00 3,4 2,7 - 16 9 - - W 1015,3 35 0,0
23.09.2018 06:00:00 4,6 3,0 - 15 8 - - W 1014,7 50 0,2
23.09.2018 05:00:00 3,1 2,1 - 16 9 - - W 1014,2 30 0,0
23.09.2018 04:00:00 4,2 3,2 - 21 11 - - W 1014,4 35 0,0
23.09.2018 03:00:00 4,2 3,5 - 18 10 - - W 1014,4 28 0,0
23.09.2018 02:00:00 4,6 3,7 - 18 10 - - W 1014,2 25 0,0
23.09.2018 01:00:00 4,2 3,0 - 18 10 - - W 1013,9 27 0,0
23.09.2018 00:00:00 5,4 4,1 - 16 9 - - W 1013,9 18 0,0
22.09.2018 23:00:00 4,4 3,3 - 16 9 - - W 1013,4 24 0,0
22.09.2018 22:00:00 4,8 3,3 - 15 8 - - W 1013,0 28 0,0
22.09.2018 21:00:00 5,2 3,4 - 13 7 - - W 1012,7 20 0,0
22.09.2018 20:00:00 7,0 3,5 - 22 12 - - WNW 1012,1 24 0,0
22.09.2018 19:00:00 8,3 4,9 - 22 12 - - WNW 1011,2 22 0,0
22.09.2018 18:00:00 9,6 4,9 - 28 15 48 26 WNW 1010,7 23 0,0
22.09.2018 17:00:00 9,6 5,7 - 31 17 48 26 WNW 1010,4 30 0,0
22.09.2018 16:00:00 10,6 6,5 - 34 18 55 30 NW 1009,9 30 0,0
22.09.2018 15:00:00 11,6 6,0 - 37 20 54 29 WNW 1009,5 28 0,0
22.09.2018 14:00:00 10,7 7,8 - 37 20 59 32 WNW 1008,8 25 0,2
22.09.2018 13:00:00 11,3 7,8 - 35 19 54 29 W 1007,6 21 0,0
22.09.2018 12:00:00 11,5 9,1 - 34 18 52 28 W 1006,8 18 0,0
22.09.2018 11:00:00 10,2 7,8 - 39 21 57 31 W 1006,2 25 0,2
22.09.2018 10:00:00 9,1 7,3 10,9 35 19 65 35 W 1005,5 30 0,2
22.09.2018 09:00:00 9,0 6,8 - 35 19 54 29 W 1004,5 22 0,0
22.09.2018 08:00:00 8,8 7,7 - 37 20 50 27 W 1003,4 19 0,4
22.09.2018 07:00:00 8,7 8,2 - 37 20 55 30 W 1002,0 4,2 0,8
22.09.2018 06:00:00 7,7 7,0 - 37 20 54 29 W 1001,1 7 0,4
22.09.2018 05:00:00 7,1 5,3 - 31 17 55 30 WSW 1001,4 7 0,0
22.09.2018 04:00:00 7,4 4,9 - 34 18 54 29 WSW 1002,0 12 0,2
22.09.2018 03:00:00 7,3 4,7 - 34 18 46 25 WSW 1001,9 22 0,0
22.09.2018 02:00:00 7,4 4,4 - 37 20 50 27 WSW 1001,5 45 0,0
22.09.2018 01:00:00 7,0 4,4 - 34 18 - - WSW 1001,2 45 0,0
22.09.2018 00:00:00 6,7 4,2 - 29 16 - - WSW 1001,3 40 0,0
21.09.2018 23:00:00 6,7 4,1 - 31 17 54 29 W 1000,8 40 0,0
21.09.2018 22:00:00 6,8 4,7 - 26 14 - - WSW 1000,7 50 0,0
21.09.2018 21:00:00 7,0 5,0 - 26 14 - - WSW 1000,4 45 0,0
21.09.2018 20:00:00 7,3 5,4 - 21 11 52 28 W 1000,5 18 0,0
21.09.2018 19:00:00 8,5 5,5 - 35 19 52 28 W 999,6 40 0,0
21.09.2018 18:00:00 9,4 4,9 - 26 14 61 33 W 999,0 35 0,0
21.09.2018 17:00:00 11,0 4,3 - 46 25 59 32 WNW 998,4 40 0,0
21.09.2018 16:00:00 10,0 5,7 - 39 21 67 36 WNW 997,5 30 0,0
21.09.2018 15:00:00 10,8 4,5 - 48 26 65 35 NW 996,3 29 0,0
21.09.2018 14:00:00 9,5 5,2 - 37 20 61 33 NW 995,2 28 0,0
21.09.2018 13:00:00 9,3 5,3 - 44 24 59 32 NW 994,0 19 0,0
21.09.2018 12:00:00 9,6 4,7 - 39 21 57 31 NW 992,8 30 0,0
21.09.2018 11:00:00 9,1 5,2 - 35 19 52 28 NW 991,8 26 0,0
21.09.2018 10:00:00 9,0 5,4 11,7 37 20 48 26 NNW 991,0 35 0,0
21.09.2018 09:00:00 8,8 6,5 - 35 19 54 29 NNW 990,2 18 0,0
21.09.2018 08:00:00 9,0 7,7 - 37 20 50 27 N 989,3 15 0,4
21.09.2018 07:00:00 8,8 8,7 - 28 15 - - N 989,0 12 3,4
21.09.2018 06:00:00 8,1 8,0 - 18 10 - - W 989,6 9 0,6
21.09.2018 05:00:00 7,7 7,4 - 13 7 - - W 990,3 23 0,2
21.09.2018 04:00:00 7,8 7,3 - 11 6 - - W 991,2 30 0,0
21.09.2018 03:00:00 8,0 7,0 - 8 4 - - SW 992,3 19 0,0
21.09.2018 02:00:00 7,9 6,8 - 5 3 - - WSW 993,3 35 0,0
21.09.2018 01:00:00 7,8 6,7 - 11 6 - - W 994,0 40 0,0
21.09.2018 00:00:00 8,1 6,4 - 9 5 - - WNW 994,8 35 0,0
20.09.2018 23:00:00 9,6 6,9 - 5 3 - - SSW 995,8 45 0,0
20.09.2018 22:00:00 9,5 6,7 - 8 4 - - SSW 996,4 45 0,0
20.09.2018 21:00:00 10,0 7,1 - 8 4 - - SW 996,8 40 0,0
20.09.2018 20:00:00 10,6 7,2 - 8 4 - - WSW 997,5 35 0,0
20.09.2018 19:00:00 11,7 6,9 - 15 8 - - SW 997,7 45 0,0
20.09.2018 18:00:00 12,4 7,0 - 26 14 - - WSW 997,8 40 0,0
20.09.2018 17:00:00 13,2 7,2 - 28 15 48 26 WSW 997,7 29 0,0
20.09.2018 16:00:00 13,6 6,8 - 37 20 54 29 WSW 997,4 35 0,0

tt = temperature
td = dewpoint
tt -20cm = temperature -20cm
ff = wind speed
fx = gusts
dd = wind direction
ppp = reduced air pressure
vv = visibility
rr = precipitation

Next stations